Tucker-Guthrie Memorial (I35)

 

Airport Diagram
No Airport Diagram Available
Current Weather/Forecast (VFR Conditions)
METAR KI35 182335Z AUTO 00000KT 10SM SCT075 OVC085 15/M01 A2987 RMK AO2 T01501006
TAF

Airport Information

All Charts
General
Chart Name View
TAKEOFF MINIMUMS
ALTERNATE MINIMUMS
TAKEOFF MINIMUMS
ALTERNATE MINIMUMS

Approaches
Chart Name Download
RNAV (GPS)-A
RNAV (GPS)-A


Airport Statistics
Departures Arrivals Local
All Collected Stats since June 2016: 2 2 0
2021 Stats: 0 0 0
April Stats: 0 0 0

Inbound Traffic (Arrivals) - 0

No inbound traffic.


Outbound Traffic (Departures) - 0

No outbound traffic.


Local Traffic (Pattern) - 0

No local traffic.